Terminal Aerodrome Forecast
Issued by NWS Portland, OR

Home | Current Version | Previous Version | Text Only | Print | Product List | Glossary On
Versions: 1 2 3 4 5 6 7 8 9 10 11 12 13 14 15 16 17 18 19 20 21 22 23
000
FTUS46 KPQR 232332
TAFTTD
TAF
KTTD 232332Z 2400/2424 30006KT P6SM SCT045
     FM240500 VRB03KT P6SM SCT250
     FM241300 00000KT P6SM OVC015
     FM241700 VRB03KT P6SM SKC
     FM242100 29006KT P6SM SKC=

USA.gov is the U.S. government's official web portal to all federal, state and local government web resources and services.